www.pogodaiklimat.ru

Погода и климат >> Архив погоды >> Россия >> город Москва >> Москва


АРХИВ ПОГОДЫ в Москве

Время (UTC), дата Ветер
(напр.,м/с)
 
Видим.   Явления Облачность Т
(С)
Тd
(С)
f
(%)
Тe
(С)
Тes
(С)
Комфортность P
(гПа)
Po
(гПа)
Тmin
(С)
Tmax
(С)
R
(мм)
R24
(мм)
S
(см)
06 19.04 СВ 2 10 км 8/8 600 м
[Sc]
+0.6 -9.8 46 -2 -1 очень
холодно
1027.7 1007.7 -2.9
09 19.04 СВ 3 10 км 10/4 1000 м
[Sc Cs]
+2.5 -11.4 35 -1 +4 очень
холодно
1027.3 1007.4
12 19.04 СВ 3 10 км 9/6 1000 м
[Sc Cs]
+2.9 -11.4 34 -0 +2 очень
холодно
1026.8 1007.0
15 19.04 С 4 10 км 8/3 1000 м
[Sc Ac trans Ci fib]
+2.7 -12.4 32 -1 -1 очень
холодно
1026.8 1007.0
18 19.04 С 2 н/о 4/0
[Ac trans]
+1.1 -12.0 37 -1 -1 очень
холодно
1027.1 1007.1 +3.6
21 19.04 С 2 н/о 9/9 1500 м
[Sc]
+0.1 -10.3 45 -3 -3 очень
холодно
1027.4 1007.3
00 20.04 С 2 н/о 8/0
[Ac trans]
-0.3 -9.9 48 -3 -3 холодно 1026.7 1006.6
03 20.04 С 2 10 км 9/9 1500 м
[Sc]
-0.7 -9.3 52 -4 -4 очень
холодно
1026.4 1006.3 -1.0
06 20.04 С 4 10 км 4/1 1000 м
[Cu hum Ac trans]
+1.3 -11.0 39 -3 0 очень
холодно
1025.6 1005.7 -1.0
09 20.04 С 3
{10}
10 км 6/4 1000 м
[Cu hum Ac trans]
+3.1 -12.6 30 0 +5 очень
холодно
1025.0 1005.2
12 20.04 С 5
{11}
10 км 8/4 1000 м
[Sc Ac trans Ci fib]
+4.4 -14.4 24 +1 +3 очень
холодно
1023.6 1003.9
15 20.04 С 4 10 км 5/3 1000 м
[Sc Ac trans]
+4.4 -14.0 25 +1 +2 очень
холодно
1022.7 1003.0
18 20.04 СЗ 1 н/о ясно +2.4 -12.8 32 +2 +2 холодно 1022.7 1002.9 +5.3
21 20.04 штиль 0 н/о ясно -1.4 -8.6 58 -2 -2 холодно 1022.1 1002.0
00 21.04 штиль 0 н/о ясно -2.2 -8.7 61 -3 -3 холодно 1021.1 1001.0
03 21.04 штиль 0 10 км 5/0
[Cs]
-2.1 -9.2 58 -3 -2 очень
холодно
1019.6 999.5 -2.4
06 21.04 ЮЗ 1 10 км 10/0
[Ac und]
+3.8 -11.4 32 +3 +5 прохладно 1017.4 997.8 -2.4
09 21.04 ЮЗ 2 10 км 10/0
[Cs]
+6.6 -10.8 28 +5 +15 опасность
простуды
1014.1 994.7
12 21.04 ЮЗ 2 10 км 10/0
[Cs]
+8.3 -11.3 24 +7 +14 прохладно 1010.1 990.9
15 21.04 ЮЗ 2 10 км 10/0
[Ac As]
+7.4 -10.4 27 +6 +7 прохладно 1007.1 987.9
18 21.04 З 1 н/о 9/9 1000 м
[Sc]
+5.2 -5.7 45 +5 +5 прохладно 1005.6 986.3 +8.3
21 21.04 З 1 н/о 10/10 1000 м
[Sc]
+5.4 -5.6 45 +5 +5 по сезону 1002.4 983.2
00 22.04 ЮЗ 1 н/о 9/9 1000 м
[Sc]
+4.4 -2.3 62 +3 +3 по сезону 1000.5 981.3
03 22.04 З 1 10 км 10/10 600 м
[Sc]
+3.7 -0.2 76 +2 +2 прохладно 999.3 980.1 +3.7
06 22.04 Ю 1 10 км 10/10 600 м
[Sc]
+4.9 +0.3 72 +4 +4 прохладно 998.0 978.9 +3.7
09 22.04 Ю 1 10 км 10/10 600 м
[Sc]
+7.1 +0.4 62 +7 +7 прохладно 996.4 977.4
12 22.04 Ю 2
{10}
10 км 10/10 600 м
[Sc]
+9.0 -0.1 53 +8 +8 прохладно 992.8 974.1
15 22.04 ЮЗ 1 4000 м слабый дождь 10/10 300 м
[Frnb Ns]
+5.9 +3.3 83 +5 +5 холодно 991.7 972.8 3
18 22.04 ЮЗ 2
{12}
н/о в посл. час ливневой дождь 8/8 600 м
[Cb cap]
+4.2 +2.4 88 +1 +1 холодно 993.3 974.2 +9.8 7
21 22.04 З 2
{12}
н/о 9/9 600 м
[Sc]
+3.3 0.0 79 0 0 холодно 995.4 976.2
00 23.04 З 2
{12}
н/о 10/10 600 м
[Sc]
+2.6 -0.5 80 -0 -0 прохладно 996.4 977.2
03 23.04 ЮЗ 1 10 км 10/10 600 м
[Sc]
+2.0 -1.0 80 0 0 холодно 997.4 978.1 +2.0 4
06 23.04 З 2 10 км 10/10 600 м
[Sc]
+3.9 -1.6 67 +1 +1 холодно 998.7 979.5 +2.0
09 23.04 З 1
{11}
10 км в посл. час крупа {ливн. осадки} 8/8 600 м
[Sc diur, vesp Ac trans]
+5.5 -3.0 54 +5 +8 холодно 1000.8 981.6
12 23.04 З 2
{10}
10 км {ливн. осадки} 9/9 600 м
[Cu Sc]
+7.2 -3.2 48 +6 +7 холодно 1002.5 983.4
15 23.04 З 2
{12}
10 км {ливн. осадки} 8/8 600 м
[Sc diur, vesp]
+6.2 -0.6 62 +4 +5 холодно 1004.4 985.2 0.6
18 23.04 З 1 н/о {ливн. осадки} 3/3 1000 м
[Sc]
+4.5 -1.7 64 +4 +4 прохладно 1006.8 987.5 +7.9 0.6
21 23.04 З 1 н/о ясно +2.8 -1.2 75 +1 +1 холодно 1007.7 988.2
00 24.04 штиль 0 н/о дымка ясно -1.3 -2.3 93 -3 -3 очень
холодно
1008.1 988.3
03 24.04 штиль 0 4000 м дымка 3/0
[Ci fib]
-1.0 -1.6 96 -2 -2 очень
холодно
1008.1 988.4 -1.7
06 24.04 С 1 10 км 9/0
[Ac trans Ci fib]
+5.6 -0.1 67 +5 +8 прохладно 1008.3 989.0 -1.7
09 24.04 С 2 10 км в посл. час крупа 8/8 600 м
[Sc diur, vesp]
+5.9 -1.6 59 +4 +6 холодно 1008.1 988.8
12 24.04 З 2 10 км {ливн. осадки} 8/8 600 м
[Sc]
+5.2 +0.5 72 +3 +5 очень
холодно
1008.4 989.1
15 24.04 С 2 10 км 8/4 600 м
[Sc Ci fib]
+6.4 -1.6 57 +5 +5 холодно 1008.2 989.0 2
18 24.04 штиль 0 н/о 5/0
[Ac trans Cs]
+3.3 -0.9 74 +2 +2 холодно 1010.2 990.8 +8.2 2
21 24.04 З 1 н/о дымка ясно +0.6 -0.7 91 -1 -1 очень
холодно
1011.1 991.4
00 25.04 З 1 н/о дымка ясно +0.2 -1.6 88 -2 -2 холодно 1012.0 992.3
03 25.04 штиль 0 4000 м дымка ясно -1.0 -2.3 91 -2 -2 очень
холодно
1013.8 993.9 -1.2
06 25.04 ЮЗ 1 10 км ясно +7.9 -3.8 43 +8 +15 по сезону 1014.8 995.6 -1.2
09 25.04 Ю 1 10 км 8/8 600 м
[Cu Sc]
+9.1 -6.8 32 +9 +12 по сезону 1015.1 996.0
12 25.04 ЮЗ 2 10 км 9/9 600 м
[Cu Sc]
+10.5 -5.3 32 +10 +11 прохладно 1015.5 996.4
15 25.04 З 1 10 км 8/8 600 м
[Cu Sc]
+10.9 -7.1 28 +11 +12 по сезону 1015.5 996.4
18 25.04 штиль 0 н/о ясно +6.8 -5.5 41 +7 +7 по сезону 1016.8 997.4 +12.0
21 25.04 Ю 1 н/о ясно +6.8 -4.6 44 +7 +7 по сезону 1017.0 997.6
00 26.04 ЮВ 2 н/о 6/6 600 м
[Sc]
+7.2 -3.5 46 +6 +6 по сезону 1016.0 996.7
03 26.04 Ю 2 10 км 9/8 600 м
[Sc Ci fib]
+7.2 -3.2 48 +6 +6 по сезону 1014.1 994.8 +6.2

 

Местоположение метеостанции Москва (город Москва, Россия): широта 55.83 долгота 37.62 высота над уровнем моря 156 м.

В архиве по умолчанию представлена погода в Москве за последнюю неделю. Архивные данные за месяц целиком и за предыдущие месяцы, начиная с января 2011 года, Вы можете получить, выбрав интересующий диапазон дат из раскрывающегося списка и нажав кнопку "Ввод!".

Внимание! Время в таблицах - всемирное. Для получения местного времени необходимо прибавить поправку, которая в Москве равна 3 ч.

Смотрите также архив погоды в соседних городах и на ближайших метеорологических станциях:

Погода в Москве (Балчуг) (город Москва, Россия) (9 км)
Погода в Москве (Тушино) (город Москва, Россия) (12 км)
Погода в Москве (Строгино) (город Москва, Россия) (14 км)
Погода в Шереметьево (Московская область, Россия) (20 км)
Погода в Немчиновке (город Москва, Россия) (21 км)
Погода в Подмосковной (Московская область, Россия) (29 км)
Погода в Внуково (Московская область, Россия) (33 км)
Погода в Михайловском (Московская область, Россия) (49 км)
Погода в Ново-Йерусалиме (Московская область, Россия) (51 км)
Погода в Домодедово (Московская область, Россия) (51 км)

Пояснения к столбцам:

Ветер - указаны скорость ветра в м/с - средняя за 10 мин, порывы в срок и между сроками (в фигурных скобках) и направление, откуда дует ветер: С - северный, СВ - северо-восточный, В - восточный, ЮВ - юго-восточный, Ю - южный, ЮЗ - юго-западный, З - западный, СЗ - северо-западный.
Видимость - горизонтальная дальность видимости в метрах или километрах. При видимости от 1 до 10 км при отсутствии осадков обычно наблюдается дымка, при ухудшении видимости до 1 км и менее - туман. В сухую погоду видимость может ухудшаться дымом, пылью или мглою.
Явления - указаны атмосферные явления, наблюдавшиеся в срок или в последний час перед сроком; фигурными скобками обозначены явления, наблюдавшиеся между сроками (за 1-3 часа до срока); квадратными скобками обозначены град или гололедные отложения с указанием их диаметра в мм.
Облачность - указаны через наклонную черту общая и нижняя облачность в баллах и высота нижней границы облаков в метрах; квадратными скобками обозначены формы облаков: Ci - перистые, Cs - перисто-слоистые, Cc - перисто-кучевые, Ac - высококучевые, As - высокослоистые, Sc - слоисто-кучевые, Ns - слоисто-дождевые, Cu - кучевые, Cb - кучево-дождевые. Подробнее классификацию облаков см. в Атласе облаков (PDF).
T - Температура воздуха - температура, измеренная на высоте 2 м над землей.
Td - Температура точки росы - температура, при понижении до которой содержащийся в воздухе водяной пар достигнет насыщения.
f - Относительная влажность воздуха - влажноcть воздуха, измеренная на высоте 2 м над землей.
Te - Эффективная температура - температура, которую ощущает одетый по сезону человек в тени. Характеристика душности погоды. При расчете учитывается влияние влажности воздуха и скорости ветра на теплоощущения человека.
Tes - Эффективная температура на солнце - температура, которую ощущает человек, с поправкой на солнечный нагрев. Характеристика знойности погоды. Зависит от высоты солнца над горизонтом, облачности и скорости ветра. Ночью, в пасмурную погоду, а также при ветре 12 м/с и более поправка равна нулю.
P - Атмосферное давление - приведенное к уровню моря атмосферное давление.
Po - Атмосферное давление - измеренное на уровне метеостанции атмосферное давление.
Tmin - Минимальная температура - минимум температуры воздуха на высоте 2 м над землей.
Tmax - Максимальная температура - максимум температуры воздуха на высоте 2 м над землей.
R - Количество осадков - Количество выпавших осадков за период времени, мм. При наведении курсора мыши на число - период времени, за который выпало указанное количество осадков.
R24 - Количество осадков - Количество выпавших осадков за 24 часа, мм.
S - Снежный покров - Высота снежного покрова, см. При наведении курсора мыши на число - состояние снежного покрова и степень покрытия местности в баллах.